Location: Fredericksburg
(30.2750°N, 98.8720°W)
Time: 12:23:53
(UTC-05:00)

ISS - All Passes

Search period start: 24 June 2017 00:00
Search period end: 04 July 2017 00:00
Orbit: 401 x 408 km, 51.6° (Epoch: 25 June)

Date Brightness Start Highest point End Pass type
(mag) Time Alt. Az. Time Alt. Az. Time Alt. Az.
24 Jun - 08:31:38 10° S 08:34:15 23° SE 08:36:53 10° ENE daylight
24 Jun - 10:08:02 10° W 10:10:39 22° NW 10:13:17 10° NNE daylight
24 Jun - 16:39:55 10° NNW 16:42:38 23° NE 16:45:21 10° E daylight
24 Jun - 18:16:26 10° WNW 18:19:01 21° SW 18:21:34 10° S daylight
25 Jun - 07:41:45 10° SE 07:42:15 10° SE 07:42:45 10° ESE daylight
25 Jun - 09:15:15 10° WSW 09:18:23 44° NW 09:21:32 10° NNE daylight
25 Jun - 15:48:37 10° N 15:50:16 13° NE 15:51:54 10° ENE daylight
25 Jun - 17:23:45 10° NW 17:26:57 49° SW 17:30:07 10° SSE daylight
26 Jun - 08:22:57 10° SW 08:26:11 76° SE 08:29:26 10° NE daylight
26 Jun - 10:02:57 10° NNW 10:03:00 10° NNW 10:03:04 10° NNW daylight
26 Jun - 16:31:30 10° NW 16:34:47 66° NE 16:38:02 10° SE daylight
27 Jun - 07:31:10 10° SSW 07:34:04 30° SE 07:36:59 10° ENE daylight
27 Jun - 09:08:16 10° W 09:10:34 18° NW 09:12:52 10° N daylight
27 Jun - 15:39:34 10° NNW 15:42:31 29° NE 15:45:27 10° ESE daylight
27 Jun - 17:16:40 10° W 17:18:47 16° SW 17:20:55 10° SSW daylight
28 Jun - 06:40:16 10° SSE 06:42:00 14° SE 06:43:45 10° E daylight
28 Jun - 08:15:14 10° WSW 08:18:13 33° NW 08:21:14 10° NNE daylight
28 Jun - 14:48:01 10° N 14:50:09 16° NE 14:52:16 10° ENE daylight
28 Jun - 16:23:40 10° WNW 16:26:43 36° SW 16:29:45 10° SSE daylight
29 Jun - 07:22:43 10° SW 07:25:57 78° NW 07:29:13 10° NE daylight
29 Jun - 15:31:15 10° NW 15:34:32 89° WSW 15:37:49 10° SE daylight
30 Jun - 06:30:41 10° SSW 06:33:46 41° SE 06:36:52 10° ENE daylight
30 Jun - 08:08:31 10° WNW 08:10:23 14° NW 08:12:15 10° N daylight
30 Jun - 14:39:10 10° NNW 14:42:16 38° NE 14:45:22 10° ESE daylight
30 Jun - 16:17:03 10° W 16:18:27 12° SW 16:19:51 10° SSW daylight
01 Jul - 05:39:20 10° S 05:41:39 18° SE 05:43:58 10° E visible
01 Jul - 07:15:10 10° W 07:17:57 26° NW 07:20:46 10° NNE daylight
01 Jul - 13:47:25 10° N 13:49:54 20° NE 13:52:23 10° E daylight
01 Jul - 15:23:32 10° WNW 15:26:21 27° SW 15:29:10 10° S daylight
02 Jul - 06:22:26 10° SW 06:25:37 56° NW 06:28:50 10° NE daylight
02 Jul - 12:56:23 10° NNE 12:57:25 11° NNE 12:58:26 10° NE daylight
02 Jul - 14:30:55 10° NW 14:34:11 65° SW 14:37:26 10° SE daylight
03 Jul - 05:30:11 10° SSW 05:33:22 57° SE 05:36:35 10° NE visible
03 Jul - 07:08:49 10° WNW 07:10:06 12° NNW 07:11:21 10° N daylight
03 Jul - 13:38:42 10° NW 13:41:55 51° NE 13:45:06 10° ESE daylight
